{"data":{"norad_id":67693,"epoch":"2026-05-25T00:32:49.106976Z","epoch_age_seconds":83136,"freshness":"FRESH","line1":"1 67693U 26025A   26145.02279059  .00014373  00000+0  44684-3 0  9994","line2":"2 67693  97.2866 256.6782 0001243 110.5435 249.5941 15.33432957 17718","mean_motion":15.33432957,"eccentricity":0.0001243,"inclination_deg":97.2866,"raan_deg":256.6782,"arg_perigee_deg":110.5435,"mean_anomaly_deg":249.5941,"bstar":0.00044684,"rev_number":1771,"period_min":93.906942160498,"perigee_km":464.72833230809,"apogee_km":466.42968010724,"semimajor_km":6843.7160062077,"source":"CELESTRAK","updated_at":"2026-05-25T13:38:21.662446Z"}}